Location: Antin
(43.3330°N, 0.2804°E)
Time: 17:59:26
(UTC+00:00)

SME Rocket - Pass Details

Date: 12 December 2023
Orbit: 550 x 2645 km, 99.9° (Epoch: 20 February)

Event Time Altitude Azimuth Distance (km) Brightness Sun altitude
Rises 16:48:50 0° 108° (ESE) 3,854 6.7 -4.9°
Reaches altitude 10° 16:51:35 10° 93° (E) 3,168 6.2 -5.3°
Maximum altitude 16:57:12 24° 44° (NE) 2,787 5.8 -6.3°
Drops below altitude 10° 17:04:35 10° 359° (N) 4,343 7.1 -7.5°
Sets 17:09:07 0° 348° (NNW) 5,674 7.8 -8.2°
